Total_Precipitation_Accumulation
0.00 0.00 0.00 0.00 0.00 0.00 0.00 0.00 0.00 0.00 0.00 -0.00 -0.00 -0.00 -0.00 -0.00 -0.00 -0.00 -0.00 -0.01 -0.01 -0.01 -0.01 -0.01 -0.01 -0.01 -0.02 -0.04 -0.04 -0.04 -0.04 -0.03 -0.04 -0.04 -0.03 -0.03 -0.03 -0.03 -0.02 -0.02 -0.02 -0.02 -0.01 -0.03 -0.03 -0.02 -0.03 -0.04 -0.04 -0.03 -0.01 0.01 0.03 0.03 -0.01 -0.01 -0.01 -0.10 -0.23 -0.32 -0.32 -0.22 -0.11 -0.13 -0.13 -0.23 -0.30 -0.50 -0.83 -0.83 -0.76 -0.66 -0.52 -0.52 -0.42 -0.43 -0.55 -0.55 -0.56 -0.39 -0.39 -0.44 -0.21 -0.05 -0.05 0.03
0.00 0.00 0.00 0.00 0.00 0.00 0.00 0.00 0.00 0.00 0.00 -0.00 -0.00 -0.00 -0.00 -0.00 -0.00 -0.00 -0.00 -0.00 -0.00 -0.01 -0.01 -0.00 -0.00 -0.01 -0.02 -0.01 -0.01 -0.01 -0.03 -0.03 -0.04 -0.04 -0.03 -0.03 -0.03 -0.03 -0.02 -0.03 -0.03 -0.03 -0.01 -0.02 -0.02 -0.04 -0.03 -0.05 -0.05 -0.04 0.00 0.02 0.04 0.04 0.03 -0.01 -0.01 0.00 -0.13 -0.33 -0.33 -0.24 -0.14 -0.11 -0.11 -0.21 -0.30 -0.47 -0.74 -0.74 -0.83 -0.92 -0.75 -0.75 -0.69 -0.46 -0.55 -0.55 -0.62 -0.54 -0.54 -0.55 -0.35 -0.11 -0.11 0.07
0.00 0.00 0.00 0.00 0.00 0.00 0.00 0.00 0.00 0.00 -0.00 -0.00 -0.00 -0.00 -0.00 -0.00 -0.00 -0.00 -0.00 -0.01 -0.01 -0.01 -0.01 -0.01 -0.01 -0.01 -0.01 -0.01 -0.00 -0.00 -0.02 -0.03 -0.04 -0.04 -0.03 -0.03 -0.03 -0.03 -0.04 -0.05 -0.05 -0.03 -0.02 -0.02 -0.02 -0.02 -0.05 -0.07 -0.07 -0.04 0.02 0.05 0.06 0.06 -0.02 -0.06 -0.06 -0.06 -0.17 -0.26 -0.26 -0.35 -0.27 -0.17 -0.17 -0.20 -0.29 -0.44 -0.72 -0.72 -0.84 -0.91 -0.82 -0.82 -0.78 -0.69 -0.55 -0.55 -0.61 -0.64 -0.64 -0.66 -0.61 -0.41 -0.41 0.08
0.00 0.01 0.01 0.00 0.00 0.00 0.01 0.00 -0.00 -0.00 -0.00 -0.00 -0.00 -0.00 -0.00 -0.00 -0.00 -0.00 -0.01 -0.01 -0.01 -0.01 -0.00 -0.00 -0.00 -0.00 -0.00 -0.00 -0.00 -0.00 -0.01 -0.03 -0.04 -0.04 -0.04 -0.05 -0.04 -0.04 -0.04 -0.05 -0.05 -0.04 -0.03 -0.02 -0.02 -0.02 -0.05 -0.06 -0.06 -0.06 -0.03 0.02 0.05 0.05 -0.09 -0.13 -0.13 -0.13 -0.22 -0.29 -0.29 -0.36 -0.33 -0.20 -0.20 -0.17 -0.20 -0.31 -0.46 -0.46 -0.64 -0.93 -0.86 -0.86 -0.82 -0.79 -0.66 -0.66 -0.61 -0.62 -0.62 -0.66 -0.62 -0.43 -0.43 -0.15
0.00 0.01 0.01 0.01 0.01 0.01 0.00 0.00 -0.00 -0.00 -0.00 -0.00 -0.00 -0.00 -0.00 -0.00 -0.00 -0.00 -0.00 -0.00 -0.00 -0.00 -0.00 -0.00 -0.00 -0.00 0.00 -0.00 -0.01 -0.01 -0.01 -0.03 -0.04 -0.04 -0.04 -0.06 -0.05 -0.05 -0.05 -0.06 -0.06 -0.05 -0.05 -0.03 -0.03 -0.02 -0.05 -0.06 -0.06 -0.05 -0.04 -0.01 0.01 0.01 -0.07 -0.16 -0.16 -0.19 -0.23 -0.27 -0.27 -0.36 -0.38 -0.25 -0.25 -0.20 -0.22 -0.32 -0.50 -0.50 -0.65 -0.79 -0.86 -0.86 -0.85 -0.84 -0.86 -0.86 -0.86 -0.68 -0.68 -0.63 -0.64 -0.43 -0.43 -0.17
0.00 0.01 0.01 0.01 0.01 0.01 0.00 0.00 -0.00 -0.00 -0.00 -0.00 -0.00 -0.00 -0.00 -0.00 -0.00 -0.00 -0.00 -0.00 -0.00 -0.00 -0.00 -0.00 -0.00 -0.00 0.00 -0.00 -0.01 -0.01 -0.02 -0.04 -0.04 -0.04 -0.05 -0.06 -0.05 -0.05 -0.05 -0.07 -0.07 -0.05 -0.04 -0.03 -0.03 -0.02 -0.01 -0.05 -0.05 -0.06 -0.03 -0.02 -0.01 -0.01 -0.10 -0.19 -0.19 -0.23 -0.26 -0.31 -0.31 -0.37 -0.40 -0.41 -0.41 -0.34 -0.22 -0.30 -0.45 -0.45 -0.65 -0.79 -0.82 -0.82 -0.88 -0.85 -0.90 -0.90 -0.94 -0.76 -0.76 -0.71 -0.60 -0.67 -0.67 -0.49
0.00 0.01 0.01 0.01 0.01 0.00 0.00 -0.00 -0.00 -0.00 -0.00 -0.00 -0.00 -0.00 -0.00 -0.00 -0.00 -0.00 -0.00 -0.00 -0.00 -0.00 -0.00 -0.00 -0.00 -0.00 0.00 -0.01 -0.01 -0.01 -0.02 -0.04 -0.05 -0.05 -0.06 -0.05 -0.06 -0.06 -0.05 -0.05 -0.05 -0.05 -0.03 -0.04 -0.04 -0.04 -0.03 -0.03 -0.03 -0.05 -0.07 -0.05 -0.04 -0.04 -0.05 -0.22 -0.22 -0.27 -0.29 -0.35 -0.35 -0.43 -0.44 -0.43 -0.43 -0.37 -0.22 -0.20 -0.23 -0.23 -0.38 -0.55 -0.77 -0.77 -0.80 -0.88 -0.92 -0.92 -0.88 -0.83 -0.83 -0.76 -0.58 -0.68 -0.68 -0.49
0.02 0.01 -0.00 -0.00 -0.00 -0.00 0.00 -0.00 -0.00 -0.00 -0.00 -0.00 -0.00 -0.00 -0.00 -0.00 -0.00 -0.00 0.00 0.00 0.00 0.00 -0.00 0.00 0.00 0.00 -0.00 -0.00 -0.01 -0.01 -0.03 -0.04 -0.05 -0.05 -0.05 -0.06 -0.06 -0.06 -0.05 -0.06 -0.06 -0.07 -0.05 -0.04 -0.04 -0.05 -0.05 -0.05 -0.05 -0.06 -0.07 -0.08 -0.07 -0.07 -0.08 -0.12 -0.12 -0.23 -0.28 -0.33 -0.33 -0.40 -0.45 -0.47 -0.47 -0.43 -0.38 -0.25 -0.20 -0.20 -0.19 -0.41 -0.65 -0.65 -0.81 -0.87 -0.83 -0.83 -0.83 -0.83 -0.83 -0.88 -0.81 -0.67 -0.67 -0.63
0.03 0.00 -0.00 -0.00 -0.00 -0.00 -0.00 -0.00 -0.00 -0.00 -0.00 -0.00 -0.01 -0.01 -0.01 -0.01 -0.00 -0.00 0.00 0.00 0.00 0.00 0.00 -0.00 -0.00 -0.00 -0.00 -0.00 -0.02 -0.02 -0.03 -0.05 -0.06 -0.06 -0.07 -0.11 -0.10 -0.10 -0.08 -0.07 -0.07 -0.07 -0.06 -0.04 -0.04 -0.06 -0.05 -0.04 -0.04 -0.06 -0.05 -0.08 -0.10 -0.10 -0.13 -0.12 -0.12 -0.14 -0.28 -0.33 -0.33 -0.43 -0.44 -0.47 -0.47 -0.41 -0.35 -0.24 -0.18 -0.18 -0.18 -0.24 -0.39 -0.39 -0.57 -0.72 -0.87 -0.87 -0.88 -0.79 -0.79 -0.83 -0.82 -0.71 -0.71 -0.63
0.01 0.00 -0.01 -0.00 -0.00 -0.00 -0.00 -0.00 -0.00 -0.00 -0.00 -0.00 -0.00 -0.00 -0.01 -0.01 -0.00 -0.00 -0.00 0.00 0.00 0.00 0.00 -0.00 -0.00 -0.00 -0.00 -0.01 -0.01 -0.01 -0.05 -0.06 -0.08 -0.08 -0.11 -0.17 -0.14 -0.14 -0.12 -0.13 -0.13 -0.10 -0.08 -0.07 -0.07 -0.04 -0.06 -0.06 -0.06 -0.07 -0.07 -0.11 -0.12 -0.12 -0.15 -0.15 -0.15 -0.15 -0.20 -0.27 -0.27 -0.33 -0.43 -0.46 -0.46 -0.45 -0.33 -0.22 -0.17 -0.17 -0.17 -0.24 -0.36 -0.36 -0.51 -0.63 -0.79 -0.79 -0.83 -0.82 -0.82 -0.81 -0.75 -0.86 -0.86 -0.84
0.00 -0.00 -0.00 -0.00 -0.00 -0.00 -0.00 -0.00 -0.00 -0.00 -0.00 -0.00 -0.00 -0.00 -0.00 -0.00 -0.00 -0.00 -0.01 0.00 0.00 0.00 0.00 -0.00 -0.00 -0.00 -0.01 -0.01 -0.02 -0.02 -0.03 -0.06 -0.07 -0.07 -0.16 -0.20 -0.17 -0.17 -0.16 -0.14 -0.14 -0.11 -0.10 -0.07 -0.07 -0.06 -0.06 -0.07 -0.07 -0.06 -0.08 -0.16 -0.16 -0.16 -0.16 -0.18 -0.18 -0.17 -0.20 -0.24 -0.24 -0.30 -0.41 -0.47 -0.47 -0.45 -0.39 -0.30 -0.20 -0.20 -0.16 -0.16 -0.21 -0.21 -0.33 -0.42 -0.71 -0.71 -0.73 -0.76 -0.76 -0.82 -0.79 -0.89 -0.89 -0.90
-0.01 -0.00 -0.00 -0.00 -0.00 -0.00 -0.00 0.00 0.00 0.00 -0.00 -0.00 -0.01 -0.01 -0.01 -0.01 -0.01 -0.01 -0.00 -0.00 -0.00 0.00 -0.00 -0.00 -0.00 -0.00 -0.02 -0.03 -0.03 -0.03 -0.04 -0.06 -0.07 -0.07 -0.11 -0.16 -0.15 -0.15 -0.16 -0.15 -0.15 -0.13 -0.10 -0.08 -0.08 -0.07 -0.07 -0.08 -0.08 -0.06 -0.09 -0.14 -0.18 -0.18 -0.19 -0.15 -0.15 -0.19 -0.19 -0.22 -0.22 -0.27 -0.40 -0.48 -0.48 -0.47 -0.40 -0.29 -0.19 -0.19 -0.14 -0.14 -0.19 -0.19 -0.31 -0.37 -0.45 -0.45 -0.62 -0.71 -0.71 -0.70 -0.74 -0.86 -0.86 -1.06
-0.01 -0.00 0.00 0.00 0.00 0.00 0.00 0.00 -0.00 -0.00 -0.00 -0.02 -0.02 -0.02 -0.03 -0.02 -0.01 -0.01 -0.00 0.00 0.00 0.00 -0.00 -0.00 -0.00 -0.00 -0.01 -0.05 -0.05 -0.05 -0.05 -0.07 -0.08 -0.08 -0.13 -0.14 -0.12 -0.12 -0.12 -0.15 -0.15 -0.15 -0.15 -0.14 -0.14 -0.10 -0.07 -0.08 -0.08 -0.06 -0.08 -0.14 -0.20 -0.20 -0.19 -0.14 -0.14 -0.21 -0.19 -0.18 -0.18 -0.18 -0.25 -0.39 -0.39 -0.48 -0.45 -0.42 -0.33 -0.33 -0.14 -0.13 -0.18 -0.18 -0.26 -0.35 -0.41 -0.41 -0.53 -0.60 -0.60 -0.64 -0.68 -0.90 -0.90 -1.08
-0.01 0.00 0.01 0.01 0.01 0.00 0.00 -0.00 -0.01 -0.01 -0.02 -0.01 -0.02 -0.02 -0.02 -0.02 -0.01 -0.01 0.00 0.00 0.00 0.00 -0.00 -0.00 -0.00 -0.01 -0.02 -0.09 -0.05 -0.05 -0.04 -0.04 -0.10 -0.10 -0.13 -0.11 -0.12 -0.12 -0.12 -0.15 -0.15 -0.15 -0.15 -0.14 -0.14 -0.10 -0.08 -0.10 -0.10 -0.09 -0.06 -0.09 -0.18 -0.18 -0.17 -0.12 -0.12 -0.21 -0.20 -0.17 -0.17 -0.17 -0.23 -0.38 -0.38 -0.45 -0.42 -0.40 -0.36 -0.36 -0.20 -0.15 -0.13 -0.13 -0.17 -0.26 -0.33 -0.33 -0.37 -0.40 -0.40 -0.52 -0.51 -0.62 -0.62 -0.86
0.00 0.01 0.01 0.01 0.01 0.00 -0.00 -0.00 -0.01 -0.01 -0.01 -0.01 -0.01 -0.01 -0.01 -0.01 -0.01 -0.01 -0.01 0.00 0.00 -0.00 -0.00 -0.01 -0.01 -0.01 -0.02 -0.06 -0.03 -0.03 -0.02 -0.03 -0.08 -0.08 -0.09 -0.08 -0.10 -0.10 -0.12 -0.19 -0.19 -0.17 -0.15 -0.14 -0.14 -0.12 -0.09 -0.10 -0.10 -0.08 -0.08 -0.10 -0.15 -0.15 -0.15 -0.14 -0.14 -0.14 -0.20 -0.22 -0.22 -0.16 -0.13 -0.36 -0.36 -0.43 -0.39 -0.40 -0.39 -0.39 -0.26 -0.17 -0.23 -0.23 -0.23 -0.29 -0.33 -0.33 -0.35 -0.39 -0.39 -0.46 -0.45 -0.55 -0.55 -0.80
0.01 0.01 0.01 0.01 0.01 0.00 -0.00 -0.00 -0.00 -0.00 -0.01 -0.01 -0.01 -0.01 -0.01 -0.01 -0.01 -0.01 -0.01 0.00 0.00 0.00 0.00 -0.00 -0.00 -0.01 -0.02 -0.02 -0.01 -0.01 -0.02 -0.04 -0.07 -0.07 -0.08 -0.10 -0.09 -0.09 -0.12 -0.14 -0.14 -0.16 -0.14 -0.11 -0.11 -0.14 -0.11 -0.11 -0.11 -0.11 -0.09 -0.13 -0.16 -0.16 -0.14 -0.14 -0.14 -0.14 -0.22 -0.24 -0.24 -0.15 -0.12 -0.18 -0.18 -0.33 -0.36 -0.36 -0.39 -0.39 -0.42 -0.37 -0.32 -0.32 -0.28 -0.31 -0.31 -0.31 -0.35 -0.38 -0.38 -0.41 -0.43 -0.46 -0.46 -0.70
0.01 0.00 0.00 0.01 0.01 0.00 -0.00 -0.00 0.00 0.00 -0.00 -0.01 -0.01 -0.01 -0.01 -0.02 -0.02 -0.02 -0.01 0.00 0.00 0.00 -0.00 -0.01 -0.01 -0.02 -0.01 -0.00 -0.01 -0.01 -0.01 -0.04 -0.08 -0.08 -0.11 -0.11 -0.11 -0.11 -0.12 -0.15 -0.15 -0.16 -0.14 -0.13 -0.13 -0.14 -0.17 -0.13 -0.13 -0.13 -0.13 -0.15 -0.16 -0.16 -0.17 -0.15 -0.15 -0.16 -0.22 -0.25 -0.25 -0.15 -0.11 -0.15 -0.15 -0.32 -0.32 -0.33 -0.38 -0.38 -0.48 -0.47 -0.39 -0.39 -0.32 -0.31 -0.30 -0.30 -0.34 -0.37 -0.37 -0.36 -0.37 -0.43 -0.43 -0.41
0.01 0.00 0.00 0.00 0.00 -0.00 -0.00 -0.00 0.00 0.00 -0.00 -0.02 -0.02 -0.02 -0.01 -0.01 -0.01 -0.01 -0.01 0.00 0.00 0.01 -0.00 -0.01 -0.01 -0.02 -0.01 0.00 -0.01 -0.01 -0.01 -0.01 -0.05 -0.05 -0.11 -0.11 -0.11 -0.11 -0.13 -0.19 -0.19 -0.20 -0.16 -0.15 -0.15 -0.15 -0.18 -0.15 -0.15 -0.16 -0.15 -0.19 -0.19 -0.19 -0.19 -0.19 -0.19 -0.16 -0.18 -0.29 -0.29 -0.23 -0.14 -0.11 -0.11 -0.13 -0.22 -0.31 -0.38 -0.38 -0.50 -0.52 -0.42 -0.42 -0.31 -0.33 -0.31 -0.31 -0.36 -0.37 -0.37 -0.34 -0.37 -0.45 -0.45 -0.39
0.00 0.00 -0.00 0.00 0.00 0.00 -0.01 -0.01 -0.01 -0.01 -0.01 -0.02 -0.02 -0.02 -0.02 -0.01 -0.01 -0.01 -0.01 0.00 0.00 0.00 0.01 -0.01 -0.01 -0.01 -0.00 0.00 -0.01 -0.01 -0.01 -0.02 -0.05 -0.05 -0.12 -0.13 -0.12 -0.12 -0.14 -0.18 -0.18 -0.21 -0.24 -0.18 -0.18 -0.17 -0.20 -0.19 -0.19 -0.19 -0.22 -0.21 -0.22 -0.22 -0.21 -0.22 -0.22 -0.19 -0.23 -0.31 -0.31 -0.23 -0.14 -0.10 -0.10 -0.13 -0.18 -0.25 -0.30 -0.30 -0.41 -0.51 -0.51 -0.51 -0.45 -0.33 -0.32 -0.32 -0.31 -0.36 -0.36 -0.37 -0.35 -0.44 -0.44 -0.47
0.00 0.00 -0.00 -0.00 -0.00 0.00 -0.01 -0.00 0.00 0.00 -0.02 -0.02 -0.02 -0.02 -0.01 -0.01 0.00 0.00 -0.00 0.00 0.00 0.01 0.00 0.00 0.00 -0.01 0.00 0.00 -0.01 -0.01 -0.01 -0.03 -0.07 -0.07 -0.12 -0.19 -0.17 -0.17 -0.16 -0.20 -0.20 -0.22 -0.23 -0.17 -0.17 -0.16 -0.18 -0.25 -0.25 -0.23 -0.21 -0.24 -0.25 -0.25 -0.26 -0.24 -0.24 -0.20 -0.26 -0.32 -0.32 -0.22 -0.15 -0.10 -0.10 -0.12 -0.15 -0.22 -0.27 -0.27 -0.39 -0.49 -0.50 -0.50 -0.48 -0.39 -0.33 -0.33 -0.32 -0.36 -0.36 -0.36 -0.40 -0.50 -0.50 -0.52
0.00 0.01 -0.01 -0.01 -0.01 0.00 0.00 -0.00 -0.00 -0.00 -0.01 -0.01 -0.01 -0.01 -0.00 -0.01 -0.01 -0.01 -0.00 0.00 0.00 0.00 0.02 0.01 0.01 -0.00 0.00 0.01 0.01 0.01 0.01 -0.01 -0.06 -0.06 -0.09 -0.20 -0.22 -0.22 -0.20 -0.22 -0.22 -0.23 -0.22 -0.17 -0.17 -0.18 -0.19 -0.24 -0.24 -0.31 -0.22 -0.26 -0.26 -0.26 -0.28 -0.23 -0.23 -0.22 -0.22 -0.35 -0.35 -0.33 -0.25 -0.15 -0.15 -0.10 -0.13 -0.13 -0.19 -0.19 -0.23 -0.34 -0.41 -0.41 -0.49 -0.49 -0.40 -0.40 -0.34 -0.35 -0.35 -0.38 -0.42 -0.51 -0.51 -0.54
0.00 0.01 -0.01 -0.01 -0.01 0.02 0.00 -0.00 -0.01 -0.01 -0.01 0.02 0.03 0.03 0.00 -0.01 -0.00 -0.00 -0.01 0.01 0.01 0.01 0.02 0.01 0.01 0.00 0.04 0.03 0.02 0.02 0.00 -0.05 -0.09 -0.09 -0.14 -0.22 -0.24 -0.24 -0.25 -0.23 -0.23 -0.23 -0.23 -0.19 -0.19 -0.16 -0.17 -0.23 -0.23 -0.39 -0.28 -0.27 -0.29 -0.29 -0.29 -0.27 -0.27 -0.24 -0.26 -0.36 -0.36 -0.32 -0.25 -0.16 -0.16 -0.11 -0.16 -0.14 -0.17 -0.17 -0.20 -0.30 -0.39 -0.39 -0.48 -0.50 -0.38 -0.38 -0.34 -0.30 -0.30 -0.34 -0.39 -0.42 -0.42 -0.47
-0.00 0.01 0.01 -0.00 -0.00 0.01 0.00 0.00 -0.01 -0.01 0.01 0.03 0.02 0.02 -0.01 -0.01 0.04 0.04 0.02 0.02 0.02 0.15 0.11 0.08 0.08 0.06 -0.01 -0.01 -0.01 -0.01 -0.05 -0.08 -0.16 -0.16 -0.23 -0.22 -0.28 -0.28 -0.26 -0.21 -0.21 -0.20 -0.20 -0.14 -0.14 -0.14 -0.14 -0.14 -0.14 -0.25 -0.47 -0.36 -0.34 -0.34 -0.33 -0.33 -0.33 -0.26 -0.29 -0.38 -0.38 -0.32 -0.26 -0.17 -0.17 -0.12 -0.18 -0.15 -0.15 -0.15 -0.18 -0.27 -0.35 -0.35 -0.45 -0.48 -0.37 -0.37 -0.33 -0.30 -0.30 -0.35 -0.39 -0.39 -0.39 -0.42
-0.00 0.01 0.01 0.01 0.01 0.02 0.07 0.06 0.03 0.03 0.03 0.09 0.06 0.06 0.05 0.07 0.31 0.31 0.26 0.20 0.20 -0.03 -0.02 -0.01 -0.01 -0.01 -0.00 -0.01 -0.01 -0.01 -0.04 -0.12 -0.20 -0.20 -0.24 -0.31 -0.38 -0.38 -0.26 -0.20 -0.20 -0.18 -0.15 -0.10 -0.10 -0.12 -0.14 -0.16 -0.16 -0.30 -0.51 -0.39 -0.36 -0.36 -0.36 -0.37 -0.37 -0.29 -0.30 -0.42 -0.42 -0.37 -0.32 -0.27 -0.27 -0.18 -0.18 -0.20 -0.17 -0.17 -0.14 -0.19 -0.25 -0.25 -0.33 -0.42 -0.40 -0.40 -0.35 -0.32 -0.32 -0.30 -0.35 -0.37 -0.37 -0.36
-0.03 -0.01 0.02 0.03 0.03 0.06 0.08 0.08 0.11 0.11 0.11 0.14 0.26 0.26 0.30 0.33 -0.01 -0.01 -0.01 -0.02 -0.02 -0.01 -0.01 -0.01 -0.01 -0.00 -0.00 -0.01 -0.01 -0.01 -0.06 -0.09 -0.11 -0.11 -0.14 -0.20 -0.34 -0.34 -0.38 -0.20 -0.20 -0.19 -0.15 -0.10 -0.10 -0.10 -0.15 -0.18 -0.18 -0.34 -0.52 -0.44 -0.40 -0.40 -0.41 -0.39 -0.39 -0.30 -0.32 -0.43 -0.43 -0.37 -0.31 -0.27 -0.27 -0.21 -0.23 -0.21 -0.18 -0.18 -0.18 -0.20 -0.24 -0.24 -0.30 -0.39 -0.37 -0.37 -0.34 -0.32 -0.32 -0.32 -0.35 -0.36 -0.36 -0.34
-0.01 0.02 0.02 0.03 0.03 0.05 -0.02 -0.01 0.01 0.01 0.07 0.02 0.02 0.02 0.01 -0.00 -0.04 -0.04 -0.02 -0.01 -0.01 0.01 0.01 0.01 0.01 0.00 -0.00 -0.01 -0.01 -0.01 -0.03 -0.06 -0.08 -0.08 -0.13 -0.23 -0.29 -0.29 -0.25 -0.14 -0.14 -0.15 -0.14 -0.09 -0.09 -0.11 -0.13 -0.17 -0.17 -0.22 -0.35 -0.53 -0.52 -0.52 -0.44 -0.43 -0.43 -0.40 -0.30 -0.32 -0.32 -0.41 -0.36 -0.27 -0.27 -0.27 -0.22 -0.23 -0.23 -0.23 -0.25 -0.27 -0.25 -0.25 -0.26 -0.27 -0.33 -0.33 -0.37 -0.33 -0.33 -0.36 -0.34 -0.36 -0.36 -0.39
-0.02 -0.02 -0.02 -0.02 -0.02 -0.01 0.00 0.00 0.00 0.00 0.01 -0.01 -0.03 -0.03 -0.05 -0.06 0.03 0.03 0.02 0.02 0.02 0.02 0.01 -0.01 -0.01 0.00 -0.00 -0.00 -0.01 -0.01 -0.02 -0.08 -0.11 -0.11 -0.18 -0.25 -0.21 -0.21 -0.18 -0.14 -0.14 -0.15 -0.13 -0.09 -0.09 -0.11 -0.13 -0.21 -0.21 -0.22 -0.33 -0.54 -0.52 -0.52 -0.44 -0.44 -0.44 -0.39 -0.30 -0.30 -0.30 -0.39 -0.32 -0.28 -0.28 -0.27 -0.22 -0.22 -0.23 -0.23 -0.29 -0.35 -0.30 -0.30 -0.31 -0.27 -0.32 -0.32 -0.36 -0.34 -0.34 -0.38 -0.35 -0.40 -0.40 -0.45
-0.01 -0.01 -0.01 -0.01 -0.01 -0.02 -0.01 -0.00 -0.01 -0.01 -0.01 -0.04 -0.07 -0.07 -0.05 0.01 0.06 0.06 0.02 0.02 0.02 0.00 -0.01 -0.01 -0.01 -0.00 -0.00 0.00 -0.01 -0.01 -0.02 -0.05 -0.08 -0.08 -0.10 -0.17 -0.22 -0.22 -0.23 -0.22 -0.22 -0.14 -0.14 -0.11 -0.11 -0.11 -0.14 -0.22 -0.22 -0.27 -0.33 -0.53 -0.47 -0.47 -0.42 -0.45 -0.45 -0.34 -0.28 -0.30 -0.30 -0.36 -0.30 -0.27 -0.27 -0.26 -0.22 -0.20 -0.23 -0.23 -0.30 -0.37 -0.34 -0.34 -0.35 -0.31 -0.36 -0.36 -0.38 -0.36 -0.36 -0.39 -0.37 -0.41 -0.41 -0.46
-0.00 0.00 -0.00 -0.01 -0.01 -0.02 -0.02 -0.01 -0.01 -0.01 -0.03 -0.06 -0.05 -0.05 -0.03 0.06 0.03 0.03 0.01 0.00 0.00 0.00 -0.01 -0.01 -0.01 -0.01 0.01 0.00 -0.01 -0.01 -0.03 -0.08 -0.09 -0.09 -0.10 -0.14 -0.22 -0.22 -0.28 -0.21 -0.21 -0.13 -0.13 -0.15 -0.15 -0.15 -0.18 -0.21 -0.21 -0.24 -0.30 -0.35 -0.47 -0.47 -0.42 -0.31 -0.31 -0.44 -0.32 -0.27 -0.27 -0.31 -0.32 -0.25 -0.25 -0.24 -0.22 -0.17 -0.20 -0.20 -0.24 -0.29 -0.35 -0.35 -0.33 -0.35 -0.32 -0.32 -0.38 -0.43 -0.43 -0.49 -0.43 -0.40 -0.40 -0.34
-0.00 0.00 0.00 -0.01 -0.01 -0.02 -0.02 -0.03 -0.03 -0.03 -0.05 -0.04 -0.03 -0.03 0.01 -0.02 -0.01 -0.01 0.00 0.00 0.00 0.00 0.00 -0.00 -0.00 -0.01 0.00 -0.00 -0.01 -0.01 -0.13 -0.08 -0.08 -0.08 -0.11 -0.15 -0.20 -0.20 -0.26 -0.19 -0.19 -0.13 -0.14 -0.17 -0.17 -0.17 -0.21 -0.17 -0.17 -0.22 -0.30 -0.34 -0.40 -0.40 -0.34 -0.27 -0.27 -0.41 -0.31 -0.30 -0.30 -0.31 -0.28 -0.24 -0.24 -0.23 -0.17 -0.17 -0.21 -0.21 -0.27 -0.30 -0.31 -0.31 -0.31 -0.34 -0.32 -0.32 -0.37 -0.46 -0.46 -0.50 -0.46 -0.39 -0.39 -0.26
-0.02 -0.01 -0.01 -0.01 -0.01 -0.03 -0.03 -0.04 -0.04 -0.04 -0.04 -0.03 -0.02 -0.02 -0.01 -0.02 -0.02 -0.02 -0.01 -0.01 -0.01 0.02 0.01 0.00 0.00 -0.00 0.01 0.01 0.00 0.00 -0.02 -0.03 -0.05 -0.05 -0.07 -0.12 -0.19 -0.19 -0.22 -0.20 -0.20 -0.18 -0.13 -0.10 -0.10 -0.12 -0.17 -0.20 -0.20 -0.22 -0.30 -0.36 -0.36 -0.36 -0.29 -0.27 -0.27 -0.37 -0.30 -0.31 -0.31 -0.29 -0.26 -0.23 -0.23 -0.19 -0.15 -0.16 -0.21 -0.21 -0.28 -0.31 -0.30 -0.30 -0.30 -0.34 -0.34 -0.34 -0.32 -0.36 -0.36 -0.44 -0.48 -0.45 -0.45 -0.33
-0.03 -0.02 -0.03 -0.04 -0.04 -0.06 -0.06 -0.05 -0.04 -0.04 -0.04 -0.04 -0.03 -0.03 -0.02 -0.02 -0.02 -0.02 -0.02 -0.01 -0.01 0.04 0.03 0.02 0.02 0.01 0.01 0.00 -0.02 -0.02 -0.03 -0.04 -0.04 -0.04 -0.08 -0.18 -0.17 -0.17 -0.20 -0.27 -0.27 -0.24 -0.14 -0.11 -0.11 -0.09 -0.19 -0.22 -0.22 -0.23 -0.28 -0.33 -0.45 -0.45 -0.36 -0.30 -0.30 -0.31 -0.34 -0.29 -0.29 -0.28 -0.27 -0.22 -0.22 -0.19 -0.15 -0.13 -0.18 -0.18 -0.25 -0.31 -0.32 -0.32 -0.30 -0.30 -0.34 -0.34 -0.33 -0.32 -0.32 -0.32 -0.36 -0.33 -0.33 -0.26
-0.03 -0.04 -0.04 -0.05 -0.05 -0.08 -0.07 -0.06 -0.05 -0.05 -0.04 -0.03 -0.03 -0.03 -0.02 -0.02 -0.02 -0.02 -0.01 0.00 0.00 0.01 0.03 0.03 0.03 0.02 0.01 0.01 -0.01 -0.01 -0.01 -0.02 -0.03 -0.03 -0.05 -0.11 -0.15 -0.15 -0.14 -0.19 -0.19 -0.22 -0.14 -0.10 -0.10 -0.11 -0.17 -0.20 -0.20 -0.25 -0.26 -0.33 -0.46 -0.46 -0.36 -0.32 -0.32 -0.31 -0.32 -0.29 -0.29 -0.29 -0.25 -0.23 -0.23 -0.21 -0.18 -0.13 -0.13 -0.13 -0.20 -0.30 -0.35 -0.35 -0.35 -0.31 -0.30 -0.30 -0.35 -0.35 -0.35 -0.31 -0.29 -0.32 -0.32 -0.24
-0.05 -0.06 -0.07 -0.08 -0.08 -0.08 -0.07 -0.07 -0.06 -0.06 -0.05 -0.03 -0.02 -0.02 -0.02 -0.02 -0.02 -0.02 -0.02 -0.01 -0.01 0.01 0.02 0.03 0.03 0.03 0.02 0.01 -0.00 -0.00 -0.01 -0.02 -0.03 -0.03 -0.06 -0.12 -0.16 -0.16 -0.16 -0.18 -0.18 -0.17 -0.18 -0.11 -0.11 -0.08 -0.08 -0.09 -0.09 -0.18 -0.26 -0.28 -0.37 -0.37 -0.43 -0.38 -0.38 -0.35 -0.32 -0.29 -0.29 -0.28 -0.21 -0.18 -0.18 -0.17 -0.16 -0.13 -0.15 -0.15 -0.21 -0.33 -0.39 -0.39 -0.39 -0.33 -0.32 -0.32 -0.36 -0.38 -0.38 -0.31 -0.27 -0.25 -0.25 -0.16
-0.06 -0.07 -0.09 -0.10 -0.10 -0.11 -0.09 -0.08 -0.07 -0.07 -0.05 -0.03 -0.02 -0.02 -0.02 -0.02 -0.02 -0.02 -0.02 -0.01 -0.01 0.01 0.02 0.02 0.02 0.03 0.03 0.02 0.00 0.00 -0.01 -0.02 -0.03 -0.03 -0.07 -0.13 -0.21 -0.21 -0.21 -0.19 -0.19 -0.18 -0.19 -0.12 -0.12 -0.08 -0.08 -0.09 -0.09 -0.14 -0.25 -0.31 -0.36 -0.36 -0.41 -0.37 -0.37 -0.36 -0.30 -0.28 -0.28 -0.26 -0.17 -0.14 -0.14 -0.14 -0.15 -0.14 -0.15 -0.15 -0.21 -0.34 -0.43 -0.43 -0.40 -0.33 -0.34 -0.34 -0.35 -0.37 -0.37 -0.39 -0.32 -0.24 -0.24 -0.15
-0.06 -0.07 -0.10 -0.11 -0.11 -0.11 -0.09 -0.07 -0.07 -0.07 -0.05 -0.04 -0.02 -0.02 -0.01 -0.01 -0.01 -0.01 -0.02 -0.01 -0.01 -0.00 0.02 0.02 0.02 0.02 0.03 0.03 0.03 0.03 -0.02 -0.02 -0.04 -0.04 -0.08 -0.15 -0.19 -0.19 -0.19 -0.18 -0.18 -0.21 -0.20 -0.14 -0.14 -0.10 -0.12 -0.11 -0.11 -0.19 -0.27 -0.27 -0.35 -0.35 -0.41 -0.39 -0.39 -0.33 -0.36 -0.30 -0.30 -0.24 -0.23 -0.12 -0.12 -0.11 -0.12 -0.12 -0.13 -0.13 -0.16 -0.19 -0.36 -0.36 -0.46 -0.42 -0.34 -0.34 -0.37 -0.36 -0.36 -0.37 -0.32 -0.25 -0.25 -0.18
-0.05 -0.05 -0.08 -0.11 -0.11 -0.08 -0.07 -0.06 -0.06 -0.06 -0.03 -0.03 -0.02 -0.02 -0.00 0.01 -0.00 -0.00 -0.01 -0.01 -0.01 -0.00 0.01 0.01 0.01 0.02 0.02 0.03 0.04 0.04 0.01 -0.01 -0.03 -0.03 -0.05 -0.11 -0.14 -0.14 -0.17 -0.20 -0.20 -0.16 -0.17 -0.16 -0.16 -0.14 -0.12 -0.16 -0.16 -0.15 -0.21 -0.26 -0.37 -0.37 -0.47 -0.43 -0.43 -0.32 -0.31 -0.27 -0.27 -0.20 -0.20 -0.12 -0.12 -0.09 -0.10 -0.14 -0.15 -0.15 -0.17 -0.17 -0.36 -0.36 -0.49 -0.46 -0.39 -0.39 -0.41 -0.37 -0.37 -0.36 -0.34 -0.27 -0.27 -0.34
-0.04 -0.03 -0.03 -0.05 -0.05 -0.03 -0.03 -0.03 -0.04 -0.04 -0.01 -0.01 -0.01 -0.01 0.01 0.02 0.01 0.01 -0.01 -0.01 -0.01 -0.00 0.00 0.01 0.01 0.01 0.00 0.01 0.02 0.02 0.00 -0.01 -0.03 -0.03 -0.07 -0.09 -0.11 -0.11 -0.18 -0.19 -0.19 -0.13 -0.15 -0.16 -0.16 -0.13 -0.11 -0.13 -0.13 -0.11 -0.16 -0.22 -0.37 -0.37 -0.41 -0.42 -0.42 -0.28 -0.28 -0.23 -0.23 -0.17 -0.17 -0.13 -0.13 -0.11 -0.12 -0.16 -0.15 -0.15 -0.15 -0.13 -0.17 -0.17 -0.38 -0.51 -0.47 -0.47 -0.43 -0.43 -0.43 -0.40 -0.40 -0.41 -0.41 -0.40
-0.02 -0.02 -0.02 -0.02 -0.02 -0.02 -0.02 -0.02 -0.01 -0.01 -0.01 -0.00 -0.00 -0.00 0.00 0.02 0.04 0.04 0.01 -0.01 -0.01 0.01 -0.00 0.00 0.00 0.01 0.00 0.00 0.00 0.00 0.01 0.00 -0.03 -0.03 -0.06 -0.08 -0.11 -0.11 -0.16 -0.15 -0.15 -0.12 -0.15 -0.16 -0.16 -0.14 -0.10 -0.10 -0.10 -0.11 -0.11 -0.18 -0.34 -0.34 -0.35 -0.34 -0.34 -0.31 -0.31 -0.31 -0.31 -0.23 -0.16 -0.14 -0.14 -0.13 -0.13 -0.11 -0.15 -0.15 -0.14 -0.12 -0.19 -0.19 -0.40 -0.45 -0.44 -0.44 -0.37 -0.38 -0.38 -0.41 -0.38 -0.45 -0.45 -0.40
-0.01 -0.01 -0.01 -0.01 -0.01 -0.01 -0.01 -0.01 -0.01 -0.01 -0.00 -0.00 -0.00 -0.00 -0.00 -0.00 0.00 0.00 0.03 0.04 0.04 0.04 0.03 0.02 0.02 0.00 0.00 0.00 0.00 0.00 0.00 0.00 -0.01 -0.01 -0.03 -0.06 -0.10 -0.10 -0.12 -0.14 -0.14 -0.16 -0.14 -0.12 -0.12 -0.12 -0.12 -0.11 -0.11 -0.12 -0.14 -0.22 -0.29 -0.29 -0.29 -0.29 -0.29 -0.31 -0.27 -0.30 -0.30 -0.19 -0.14 -0.12 -0.12 -0.10 -0.10 -0.08 -0.11 -0.11 -0.11 -0.12 -0.21 -0.21 -0.39 -0.41 -0.39 -0.39 -0.34 -0.32 -0.32 -0.33 -0.27 -0.29 -0.29 -0.36
-0.01 -0.01 -0.01 -0.02 -0.02 -0.01 -0.01 -0.00 -0.00 -0.00 -0.00 -0.00 -0.00 -0.00 -0.00 -0.00 0.00 0.00 0.01 0.01 0.01 0.01 0.03 0.03 0.03 0.01 0.00 -0.00 0.00 0.00 0.00 -0.00 -0.01 -0.01 -0.03 -0.07 -0.12 -0.12 -0.12 -0.13 -0.13 -0.17 -0.15 -0.11 -0.11 -0.11 -0.12 -0.13 -0.13 -0.12 -0.13 -0.20 -0.28 -0.28 -0.28 -0.28 -0.28 -0.22 -0.17 -0.20 -0.20 -0.18 -0.13 -0.10 -0.10 -0.09 -0.09 -0.07 -0.06 -0.06 -0.09 -0.10 -0.13 -0.13 -0.23 -0.35 -0.37 -0.37 -0.34 -0.25 -0.25 -0.26 -0.24 -0.21 -0.21 -0.24
-0.01 -0.02 -0.03 -0.04 -0.04 -0.03 -0.01 -0.00 -0.00 -0.00 -0.00 0.00 -0.00 -0.00 -0.00 0.00 0.00 0.00 0.01 0.01 0.01 0.01 0.01 0.03 0.03 0.01 0.00 0.00 0.00 0.00 0.00 -0.00 -0.02 -0.02 -0.04 -0.07 -0.12 -0.12 -0.12 -0.13 -0.13 -0.13 -0.12 -0.11 -0.11 -0.14 -0.14 -0.13 -0.13 -0.09 -0.09 -0.09 -0.19 -0.19 -0.30 -0.31 -0.31 -0.25 -0.19 -0.15 -0.15 -0.21 -0.19 -0.14 -0.14 -0.08 -0.08 -0.07 -0.05 -0.05 -0.08 -0.09 -0.13 -0.13 -0.23 -0.31 -0.36 -0.36 -0.34 -0.24 -0.24 -0.22 -0.24 -0.24 -0.24 -0.19
-0.00 -0.02 -0.04 -0.02 -0.02 -0.01 -0.00 0.00 0.00 0.00 -0.00 -0.00 -0.00 -0.00 -0.00 0.00 0.01 0.01 0.01 0.01 0.01 0.01 0.01 0.01 0.01 0.02 0.01 0.00 0.00 0.00 0.00 0.00 -0.00 -0.00 -0.01 -0.04 -0.07 -0.07 -0.12 -0.14 -0.14 -0.13 -0.11 -0.10 -0.10 -0.13 -0.14 -0.14 -0.14 -0.14 -0.11 -0.10 -0.23 -0.23 -0.29 -0.29 -0.29 -0.20 -0.15 -0.15 -0.15 -0.13 -0.14 -0.13 -0.13 -0.07 -0.05 -0.05 -0.04 -0.04 -0.06 -0.09 -0.11 -0.11 -0.11 -0.15 -0.23 -0.23 -0.32 -0.35 -0.35 -0.29 -0.29 -0.23 -0.23 -0.20
0.01 0.00 -0.01 -0.00 -0.00 -0.00 0.00 0.00 -0.00 -0.00 -0.00 -0.00 -0.00 -0.00 -0.00 -0.00 0.00 0.00 0.01 0.01 0.01 0.01 0.01 0.01 0.01 0.02 0.01 0.01 -0.00 -0.00 0.00 0.00 0.00 0.00 -0.01 -0.04 -0.08 -0.08 -0.12 -0.11 -0.11 -0.11 -0.09 -0.09 -0.09 -0.14 -0.14 -0.14 -0.14 -0.13 -0.13 -0.14 -0.27 -0.27 -0.30 -0.25 -0.25 -0.18 -0.14 -0.13 -0.13 -0.06 -0.06 -0.09 -0.09 -0.09 -0.06 -0.04 -0.04 -0.04 -0.04 -0.07 -0.08 -0.08 -0.09 -0.11 -0.16 -0.16 -0.26 -0.36 -0.36 -0.36 -0.34 -0.24 -0.24 -0.16
0.01 0.01 0.00 -0.01 -0.01 -0.01 -0.01 -0.00 -0.00 -0.00 -0.00 -0.00 -0.00 -0.00 -0.00 -0.00 0.00 0.00 0.01 0.01 0.01 0.01 0.01 0.01 0.01 0.02 0.01 0.00 0.00 0.00 0.01 0.01 -0.00 -0.00 -0.01 -0.04 -0.08 -0.08 -0.10 -0.12 -0.12 -0.13 -0.11 -0.10 -0.10 -0.14 -0.15 -0.14 -0.14 -0.13 -0.13 -0.13 -0.15 -0.15 -0.26 -0.31 -0.31 -0.25 -0.17 -0.14 -0.14 -0.11 -0.07 -0.09 -0.09 -0.05 -0.03 -0.03 -0.03 -0.03 -0.04 -0.07 -0.05 -0.05 -0.06 -0.11 -0.15 -0.15 -0.22 -0.23 -0.23 -0.34 -0.40 -0.39 -0.39 -0.28
0.01 0.01 0.00 -0.01 -0.01 -0.02 -0.02 -0.01 -0.00 -0.00 -0.00 -0.00 -0.00 -0.00 -0.00 0.00 0.00 0.00 0.01 0.01 0.01 0.01 0.01 0.01 0.01 0.02 0.01 0.01 0.01 0.01 0.02 0.02 0.00 0.00 0.00 -0.02 -0.05 -0.05 -0.07 -0.09 -0.09 -0.14 -0.17 -0.16 -0.16 -0.13 -0.13 -0.16 -0.16 -0.14 -0.12 -0.12 -0.14 -0.14 -0.24 -0.28 -0.28 -0.22 -0.14 -0.11 -0.11 -0.11 -0.08 -0.08 -0.08 -0.02 -0.01 -0.02 -0.02 -0.02 -0.02 -0.02 -0.01 -0.01 -0.03 -0.06 -0.12 -0.12 -0.16 -0.22 -0.22 -0.34 -0.41 -0.45 -0.45 -0.31
0.02 0.01 0.00 -0.00 -0.00 -0.02 -0.01 -0.01 -0.01 -0.01 -0.00 -0.00 -0.00 -0.00 -0.00 -0.00 -0.00 -0.00 0.00 0.01 0.01 0.01 0.01 0.01 0.01 0.02 0.01 0.01 0.01 0.01 0.02 0.04 0.04 0.04 0.01 -0.02 -0.06 -0.06 -0.08 -0.09 -0.09 -0.11 -0.13 -0.15 -0.15 -0.14 -0.14 -0.15 -0.15 -0.09 -0.08 -0.09 -0.17 -0.17 -0.22 -0.24 -0.24 -0.16 -0.11 -0.11 -0.11 -0.07 -0.07 -0.07 -0.07 -0.06 -0.02 -0.01 -0.00 -0.00 -0.01 -0.00 0.00 0.00 -0.02 -0.07 -0.11 -0.11 -0.16 -0.20 -0.20 -0.29 -0.40 -0.40 -0.40 -0.47
0.02 0.02 0.02 0.01 0.01 0.00 -0.01 -0.01 -0.01 -0.01 -0.01 -0.00 -0.00 -0.00 -0.00 -0.00 -0.00 -0.00 0.01 0.01 0.01 0.02 0.02 0.02 0.02 0.02 0.01 0.01 0.01 0.01 0.04 0.06 0.05 0.05 0.02 -0.02 -0.06 -0.06 -0.09 -0.09 -0.09 -0.12 -0.15 -0.16 -0.16 -0.14 -0.14 -0.11 -0.11 -0.04 -0.04 -0.04 -0.07 -0.07 -0.15 -0.20 -0.20 -0.13 -0.10 -0.08 -0.08 -0.02 -0.03 -0.05 -0.05 -0.05 -0.02 -0.00 0.00 0.00 0.01 0.02 0.03 0.03 -0.01 -0.01 -0.06 -0.06 -0.11 -0.16 -0.16 -0.21 -0.30 -0.38 -0.38 -0.48
0.02 0.02 0.02 0.02 0.02 0.00 -0.01 -0.01 -0.01 -0.01 -0.01 -0.00 0.00 0.00 0.00 0.00 0.00 0.00 0.01 0.01 0.01 0.02 0.03 0.02 0.02 0.02 0.02 0.02 0.02 0.02 0.05 0.06 0.05 0.05 0.03 -0.01 -0.05 -0.05 -0.05 -0.07 -0.07 -0.08 -0.11 -0.14 -0.14 -0.12 -0.14 -0.14 -0.14 -0.09 -0.06 -0.02 -0.08 -0.08 -0.13 -0.14 -0.14 -0.09 -0.04 -0.02 -0.02 -0.00 -0.01 -0.03 -0.03 -0.03 -0.02 -0.02 -0.01 -0.01 -0.00 0.02 0.02 0.02 0.01 -0.01 -0.09 -0.09 -0.13 -0.17 -0.17 -0.23 -0.30 -0.37 -0.37 -0.48
0.02 0.02 0.02 0.01 0.01 -0.00 -0.01 -0.01 -0.01 -0.01 -0.01 -0.00 0.00 0.00 0.00 0.01 0.01 0.01 0.01 0.02 0.02 0.03 0.03 0.02 0.02 0.02 0.02 0.02 0.02 0.02 0.05 0.06 0.06 0.06 0.05 0.03 -0.00 -0.00 -0.04 -0.05 -0.05 -0.06 -0.11 -0.13 -0.13 -0.11 -0.13 -0.14 -0.14 -0.10 -0.08 -0.04 -0.06 -0.06 -0.10 -0.09 -0.09 -0.08 -0.08 0.01 0.01 0.04 -0.00 0.00 0.00 -0.00 -0.02 -0.02 -0.01 -0.01 0.00 0.02 0.03 0.03 0.02 -0.03 -0.10 -0.10 -0.15 -0.17 -0.17 -0.18 -0.26 -0.34 -0.34 -0.36
0.02 0.02 0.01 0.01 0.01 -0.00 -0.01 -0.01 -0.01 -0.01 -0.01 -0.01 -0.00 -0.00 -0.00 0.00 0.01 0.01 0.02 0.02 0.02 0.03 0.03 0.03 0.03 0.04 0.03 0.03 0.03 0.03 0.05 0.07 0.07 0.07 0.06 0.04 0.01 0.01 -0.03 -0.04 -0.04 -0.05 -0.11 -0.13 -0.13 -0.11 -0.12 -0.14 -0.14 -0.12 -0.12 -0.06 -0.01 -0.01 -0.07 -0.08 -0.08 -0.05 -0.08 0.01 0.01 0.03 -0.01 0.00 0.00 0.00 -0.02 -0.01 -0.00 -0.00 0.00 0.02 0.03 0.03 0.05 0.03 -0.06 -0.06 -0.13 -0.19 -0.19 -0.20 -0.28 -0.34 -0.34 -0.38